| time (UTC) | temp F | wind direction | speed MPH | gust MPH | rain 1hr in | rain 24hr in | rain mn in | humidity % | barometer mb |
| 20260507204939 | 67 | 187 | 0.0 | 1.0 | 0.00 | 0.04 | 0.04 | 49 | 1011.5 |
| 20260507204038 | 68 | 224 | 2.0 | 5.0 | 0.00 | 0.04 | 0.04 | 48 | 1011.5 |
| 20260507202037 | 69 | 166 | 0.0 | 2.0 | 0.00 | 0.04 | 0.04 | 47 | 1011.4 |
| 20260507201037 | 68 | 172 | 0.0 | 1.0 | 0.00 | 0.04 | 0.04 | 47 | 1011.4 |
| 20260507200136 | 68 | 21 | 0.0 | 0.0 | 0.00 | 0.04 | 0.04 | 48 | 1011.5 |
| 20260507195236 | 67 | 198 | 0.0 | 1.0 | 0.00 | 0.04 | 0.04 | 50 | 1011.4 |
| 20260507195138 | 67 | 139 | 0.0 | 1.0 | 0.00 | 0.04 | 0.04 | 50 | 1011.5 |
| 20260507195038 | 67 | 169 | 0.0 | 0.0 | 0.00 | 0.04 | 0.04 | 50 | 1011.5 |
| 20260507194040 | 66 | 173 | 1.0 | 3.0 | 0.00 | 0.04 | 0.04 | 51 | 1011.5 |
| 20260507193038 | 65 | 129 | 0.0 | 1.0 | 0.00 | 0.04 | 0.04 | 52 | 1011.8 |
| 20260507192039 | 65 | 196 | 0.0 | 1.0 | 0.00 | 0.04 | 0.04 | 52 | 1012.0 |
| 20260507191038 | 65 | 197 | 1.0 | 4.0 | 0.00 | 0.04 | 0.04 | 51 | 1012.1 |
| 20260507190137 | 65 | 43 | 0.0 | 2.0 | 0.00 | 0.04 | 0.04 | 49 | 1012.3 |
| 20260507185138 | 65 | 204 | 0.0 | 2.0 | 0.00 | 0.04 | 0.04 | 50 | 1012.4 |
| 20260507184138 | 64 | 356 | 0.0 | 0.0 | 0.00 | 0.04 | 0.04 | 52 | 1012.3 |
| 20260507183138 | 63 | 135 | 0.0 | 0.0 | 0.00 | 0.04 | 0.04 | 52 | 1012.6 |
| 20260507182236 | 63 | 135 | 0.0 | 1.0 | 0.00 | 0.04 | 0.04 | 52 | 1012.8 |
| 20260507180337 | 62 | 207 | 0.0 | 0.0 | 0.00 | 0.04 | 0.04 | 49 | 1013.0 |
| 20260507175338 | 62 | 202 | 0.0 | 0.0 | 0.00 | 0.04 | 0.04 | 50 | 1013.1 |
| 20260507174338 | 61 | 212 | 1.0 | 2.0 | 0.00 | 0.04 | 0.04 | 53 | 1013.2 |
| 20260507173336 | 59 | 360 | 0.0 | 2.0 | 0.00 | 0.05 | 0.04 | 53 | 1013.4 |
| 20260507172339 | 59 | 22 | 0.0 | 0.0 | 0.00 | 0.05 | 0.04 | 56 | 1013.9 |
| 20260507171338 | 58 | 90 | 0.0 | 0.0 | 0.00 | 0.05 | 0.04 | 55 | 1014.0 |
| 20260507170338 | 59 | 360 | 0.0 | 0.0 | 0.00 | 0.05 | 0.04 | 54 | 1014.0 |
| 20260507165436 | 59 | 225 | 0.0 | 0.0 | 0.00 | 0.05 | 0.04 | 52 | 1014.6 |
| 20260507163438 | 59 | 320 | 0.0 | 1.0 | 0.00 | 0.05 | 0.04 | 54 | 1014.4 |
| 20260507162440 | 59 | 337 | 0.0 | 1.0 | 0.00 | 0.05 | 0.04 | 57 | 1014.5 |
| 20260507162339 | 59 | 159 | 0.0 | 0.0 | 0.00 | 0.05 | 0.04 | 57 | 1014.4 |
| 20260507161338 | 58 | 315 | 0.0 | 0.0 | 0.00 | 0.05 | 0.04 | 59 | 1014.6 |
| 20260507160337 | 58 | 22 | 0.0 | 0.0 | 0.00 | 0.05 | 0.04 | 60 | 1014.7 |
| 20260507154438 | 57 | 360 | 0.0 | 0.0 | 0.00 | 0.05 | 0.04 | 61 | 1014.8 |
| 20260507153437 | 57 | 360 | 0.0 | 0.0 | 0.00 | 0.05 | 0.04 | 63 | 1015.0 |
| 20260507152536 | 56 | 360 | 0.0 | 0.0 | 0.00 | 0.05 | 0.04 | 64 | 1015.1 |
| 20260507151538 | 55 | 22 | 0.0 | 0.0 | 0.00 | 0.05 | 0.04 | 65 | 1015.0 |
| 20260507150539 | 55 | 78 | 0.0 | 2.0 | 0.00 | 0.07 | 0.04 | 69 | 1015.1 |
| 20260507144539 | 54 | 135 | 0.0 | 0.0 | 0.00 | 0.08 | 0.04 | 72 | 1015.3 |
| 20260507143540 | 53 | 180 | 0.0 | 0.0 | 0.00 | 0.09 | 0.04 | 70 | 1015.4 |
| 20260507141539 | 53 | 77 | 1.0 | 5.0 | 0.00 | 0.11 | 0.04 | 71 | 1015.5 |
| 20260507140539 | 53 | 292 | 0.0 | 0.0 | 0.00 | 0.12 | 0.04 | 72 | 1015.5 |
| 20260507135637 | 53 | 292 | 0.0 | 0.0 | 0.00 | 0.14 | 0.04 | 71 | 1015.6 |
| 20260507134638 | 53 | 292 | 0.0 | 0.0 | 0.00 | 0.16 | 0.04 | 72 | 1015.7 |
| 20260507133736 | 53 | 292 | 0.0 | 0.0 | 0.00 | 0.18 | 0.04 | 74 | 1015.7 |
| 20260507132738 | 53 | 292 | 0.0 | 0.0 | 0.00 | 0.20 | 0.04 | 77 | 1015.8 |
| 20260507130738 | 53 | 22 | 0.0 | 0.0 | 0.00 | 0.24 | 0.04 | 79 | 1015.6 |
| 20260507125739 | 53 | 22 | 0.0 | 0.0 | 0.00 | 0.24 | 0.04 | 79 | 1015.5 |
| 20260507124739 | 52 | 22 | 0.0 | 0.0 | 0.00 | 0.25 | 0.04 | 79 | 1015.5 |
| 20260507122742 | 53 | 67 | 0.0 | 0.0 | 0.00 | 0.25 | 0.04 | 86 | 1015.6 |
| 20260507121740 | 54 | 292 | 0.0 | 0.0 | 0.00 | 0.26 | 0.04 | 91 | 1015.4 |
| 20260507121637 | 54 | 292 | 0.0 | 0.0 | 0.00 | 0.26 | 0.04 | 91 | 1015.4 |
| 20260507120638 | 54 | 270 | 0.0 | 0.0 | 0.00 | 0.27 | 0.04 | 92 | 1015.3 |
| 20260507115638 | 54 | 22 | 0.0 | 0.0 | 0.00 | 0.27 | 0.04 | 94 | 1015.3 |
| 20260507114638 | 54 | 112 | 0.0 | 0.0 | 0.00 | 0.27 | 0.04 | 94 | 1015.1 |
| 20260507113639 | 53 | 112 | 0.0 | 0.0 | 0.00 | 0.27 | 0.04 | 94 | 1015.0 |
| 20260507112637 | 53 | 22 | 0.0 | 1.0 | 0.00 | 0.27 | 0.04 | 94 | 1015.0 |
| 20260507111639 | 53 | 360 | 0.0 | 0.0 | 0.00 | 0.27 | 0.04 | 94 | 1015.1 |
| 20260507110639 | 53 | 360 | 0.0 | 0.0 | 0.00 | 0.27 | 0.04 | 94 | 1014.8 |
| 20260507110537 | 53 | 360 | 0.0 | 0.0 | 0.00 | 0.27 | 0.04 | 94 | 1014.7 |
| 20260507105540 | 53 | 360 | 0.0 | 0.0 | 0.00 | 0.27 | 0.04 | 94 | 1015.0 |
| 20260507104538 | 53 | 360 | 0.0 | 0.0 | 0.00 | 0.27 | 0.04 | 94 | 1014.7 |
| 20260507094638 | 53 | 360 | 0.0 | 0.0 | 0.00 | 0.27 | 0.04 | 94 | 1014.4 |
| 20260507093737 | 53 | 360 | 0.0 | 0.0 | 0.00 | 0.27 | 0.04 | 94 | 1014.4 |
| 20260507092736 | 53 | 360 | 0.0 | 0.0 | 0.00 | 0.27 | 0.04 | 94 | 1014.3 |
| 20260507091738 | 53 | 360 | 0.0 | 0.0 | 0.00 | 0.27 | 0.04 | 94 | 1014.1 |
| 20260507085839 | 54 | 360 | 0.0 | 0.0 | 0.00 | 0.27 | 0.04 | 94 | 1014.4 |
| 20260507084838 | 54 | 360 | 0.0 | 0.0 | 0.01 | 0.27 | 0.04 | 94 | 1014.2 |
| 20260507083937 | 54 | 360 | 0.0 | 0.0 | 0.01 | 0.27 | 0.04 | 94 | 1013.9 |
| 20260507082936 | 54 | 360 | 0.0 | 0.0 | 0.01 | 0.27 | 0.04 | 94 | 1014.2 |
| 20260507081936 | 54 | 360 | 0.0 | 0.0 | 0.01 | 0.27 | 0.04 | 94 | 1014.0 |
| 20260507080936 | 54 | 360 | 0.0 | 0.0 | 0.01 | 0.27 | 0.04 | 94 | 1013.8 |
| 20260507075936 | 54 | 360 | 0.0 | 0.0 | 0.01 | 0.27 | 0.04 | 94 | 1013.6 |
| 20260507074937 | 54 | 360 | 0.0 | 0.0 | 0.00 | 0.26 | 0.03 | 94 | 1013.5 |
| 20260507072937 | 55 | 292 | 0.0 | 0.0 | 0.00 | 0.26 | 0.03 | 93 | 1013.2 |
| 20260507071036 | 55 | 292 | 0.0 | 0.0 | 0.00 | 0.26 | 0.03 | 94 | 1013.2 |
| 20260507070037 | 55 | 292 | 0.0 | 0.0 | 0.00 | 0.26 | 0.03 | 94 | 1013.3 |
| 20260507065055 | 55 | 292 | 0.0 | 0.0 | 0.00 | 0.26 | 0.03 | 94 | 1013.1 |
| 20260507063038 | 55 | 270 | 0.0 | 0.0 | 0.01 | 0.26 | 0.03 | 93 | 1013.5 |
| 20260507062137 | 55 | 348 | 0.0 | 0.0 | 0.01 | 0.26 | 0.03 | 93 | 1013.4 |
| 20260507061139 | 55 | 22 | 0.0 | 0.0 | 0.01 | 0.26 | 0.03 | 92 | 1013.3 |
| 20260507060139 | 55 | 22 | 0.0 | 0.0 | 0.01 | 0.26 | 0.03 | 92 | 1013.1 |
| 20260507055139 | 56 | 21 | 0.0 | 1.0 | 0.01 | 0.26 | 0.03 | 91 | 1013.3 |
| 20260507054139 | 56 | 339 | 0.0 | 1.0 | 0.01 | 0.25 | 0.02 | 90 | 1013.4 |
| 20260507053236 | 56 | 315 | 0.0 | 0.0 | 0.01 | 0.25 | 0.02 | 90 | 1013.5 |
| 20260507052239 | 56 | 337 | 0.0 | 0.0 | 0.02 | 0.25 | 0.02 | 89 | 1013.4 |
| 20260507052137 | 56 | 337 | 0.0 | 0.0 | 0.02 | 0.25 | 0.02 | 89 | 1013.3 |
| 20260507051138 | 56 | 315 | 0.0 | 0.0 | 0.02 | 0.25 | 0.02 | 89 | 1012.9 |
| 20260507050236 | 57 | 315 | 0.0 | 0.0 | 0.02 | 0.25 | 0.02 | 88 | 1013.6 |
| 20260507045239 | 58 | 315 | 0.0 | 0.0 | 0.02 | 0.25 | 0.02 | 86 | 1013.5 |
| 20260507044237 | 59 | 292 | 0.0 | 0.0 | 0.02 | 0.25 | 0.01 | 85 | 1013.8 |
| 20260507043236 | 60 | 292 | 0.0 | 0.0 | 0.01 | 0.24 | 0.00 | 83 | 1013.4 |
| 20260507042238 | 61 | 315 | 0.0 | 0.0 | 0.00 | 0.23 | 0.00 | 80 | 1013.7 |
| 20260507041335 | 61 | 315 | 0.0 | 0.0 | 0.00 | 0.23 | 0.00 | 79 | 1013.4 |
| 20260507040335 | 61 | 315 | 0.0 | 1.0 | 0.00 | 0.23 | 0.00 | 80 | 1013.4 |
| 20260507035340 | 62 | 292 | 0.0 | 1.0 | 0.00 | 0.23 | 0.23 | 79 | 1013.0 |
| 20260507034340 | 62 | 315 | 0.0 | 0.0 | 0.00 | 0.23 | 0.23 | 77 | 1013.0 |
| 20260507033342 | 62 | 1 | 0.0 | 4.0 | 0.00 | 0.23 | 0.23 | 77 | 1013.2 |
| 20260507032342 | 63 | 315 | 0.0 | 1.0 | 0.00 | 0.23 | 0.23 | 77 | 1013.0 |
| 20260507031441 | 63 | 60 | 0.0 | 4.0 | 0.00 | 0.23 | 0.23 | 77 | 1013.0 |
| 20260507030442 | 63 | 270 | 0.0 | 0.0 | 0.00 | 0.23 | 0.23 | 78 | 1012.4 |
| 20260507024442 | 64 | 292 | 0.0 | 2.0 | 0.00 | 0.23 | 0.23 | 81 | 1012.7 |
| 20260507023442 | 64 | 295 | 0.0 | 1.0 | 0.00 | 0.23 | 0.23 | 83 | 1012.6 |
| 20260507022459 | 65 | 292 | 0.0 | 1.0 | 0.00 | 0.23 | 0.23 | 85 | 1012.1 |
| 20260507022341 | 65 | 292 | 0.0 | 2.0 | 0.00 | 0.23 | 0.23 | 85 | 1012.1 |
| 20260507021344 | 65 | 292 | 0.0 | 1.0 | 0.00 | 0.23 | 0.23 | 86 | 1012.1 |
| 20260507020342 | 65 | 292 | 0.0 | 0.0 | 0.00 | 0.23 | 0.23 | 87 | 1012.0 |
| 20260507015343 | 66 | 292 | 0.0 | 0.0 | 0.00 | 0.23 | 0.23 | 87 | 1011.9 |
| 20260507014341 | 66 | 292 | 0.0 | 0.0 | 0.00 | 0.23 | 0.23 | 86 | 1011.8 |
| 20260507013343 | 66 | 292 | 0.0 | 0.0 | 0.00 | 0.23 | 0.23 | 86 | 1012.0 |
| 20260507012343 | 66 | 292 | 0.0 | 0.0 | 0.00 | 0.23 | 0.23 | 85 | 1012.1 |
| 20260507010341 | 66 | 292 | 0.0 | 0.0 | 0.00 | 0.23 | 0.23 | 85 | 1012.1 |
| 20260507005342 | 66 | 292 | 0.0 | 0.0 | 0.00 | 0.23 | 0.23 | 84 | 1012.1 |
| 20260507001442 | 67 | 292 | 0.0 | 0.0 | 0.00 | 0.23 | 0.23 | 82 | 1011.7 |
| 20260507000541 | 67 | 292 | 0.0 | 0.0 | 0.00 | 0.23 | 0.23 | 82 | 1011.5 |
| 20260506234542 | 68 | 292 | 0.0 | 0.0 | 0.00 | 0.23 | 0.23 | 81 | 1011.3 |
| 20260506233542 | 68 | 292 | 0.0 | 1.0 | 0.00 | 0.23 | 0.23 | 81 | 1011.1 |
| 20260506232542 | 68 | 292 | 0.0 | 0.0 | 0.00 | 0.23 | 0.23 | 81 | 1011.1 |
| 20260506231639 | 68 | 202 | 0.0 | 0.0 | 0.00 | 0.23 | 0.23 | 80 | 1011.1 |
| 20260506230642 | 68 | 292 | 0.0 | 0.0 | 0.00 | 0.23 | 0.23 | 80 | 1011.0 |
| 20260506225740 | 68 | 22 | 0.0 | 0.0 | 0.00 | 0.23 | 0.23 | 80 | 1011.0 |
| 20260506224759 | 68 | 180 | 0.0 | 0.0 | 0.00 | 0.23 | 0.23 | 79 | 1010.7 |
| 20260506221841 | 69 | 292 | 0.0 | 0.0 | 0.00 | 0.23 | 0.23 | 79 | 1010.8 |
| 20260506220939 | 69 | 135 | 0.0 | 0.0 | 0.00 | 0.23 | 0.23 | 78 | 1010.6 |
| 20260506215939 | 70 | 179 | 0.0 | 0.0 | 0.00 | 0.23 | 0.23 | 78 | 1010.8 |
| 20260506214940 | 70 | 135 | 0.0 | 5.0 | 0.00 | 0.23 | 0.23 | 77 | 1010.8 |
| 20260506213941 | 70 | 266 | 0.0 | 3.0 | 0.00 | 0.23 | 0.23 | 77 | 1010.7 |
| 20260506212944 | 70 | 21 | 0.0 | 2.0 | 0.00 | 0.23 | 0.23 | 77 | 1010.8 |
| 20260506211941 | 70 | 86 | 0.0 | 1.0 | 0.00 | 0.23 | 0.23 | 76 | 1010.7 |
| 20260506210940 | 70 | 302 | 2.0 | 5.0 | 0.00 | 0.23 | 0.23 | 76 | 1010.6 |
| 20260506205944 | 70 | 198 | 2.0 | 5.0 | 0.00 | 0.23 | 0.23 | 78 | 1010.3 |